Saint Bonnet de Bellac- Haute Vienne - France
Donnes mto: jeudi, 01/03/2012
Date Horaire Temp. E. Hum. E. P.atmo. Pluie Vent Direction Direction Ensoleilleme Solaire P. de rose Temp au vent Rafales
01/03/2012 00:00 6,3 C 80 % 1020,8 hPa 0,0 mm 0,0 km/h (0 Bft) N 360 0 min 0 W/m 3,1 C 6,3 C 0,0 km/h (0 Bft)
01/03/2012 00:10 6,2 C 81 % 1020,7 hPa 0,0 mm 0,0 km/h (0 Bft) N 360 0 min 0 W/m 3,2 C 6,2 C 0,0 km/h (0 Bft)
01/03/2012 00:20 6,1 C 81 % 1020,7 hPa 0,0 mm 0,0 km/h (0 Bft) N 360 0 min 0 W/m 3,1 C 6,1 C 0,0 km/h (0 Bft)
01/03/2012 00:30 6,0 C 81 % 1020,7 hPa 0,0 mm 0,0 km/h (0 Bft) N 360 0 min 0 W/m 3,0 C 6,0 C 0,0 km/h (0 Bft)
01/03/2012 00:40 5,9 C 81 % 1020,6 hPa 0,0 mm 0,0 km/h (0 Bft) N-NE 22 0 min 0 W/m 2,9 C 5,9 C 0,0 km/h (0 Bft)
01/03/2012 00:50 5,8 C 81 % 1020,7 hPa 0,0 mm 0,0 km/h (0 Bft) N-NE 22 0 min 0 W/m 2,8 C 5,8 C 0,0 km/h (0 Bft)
01/03/2012 01:00 5,4 C 82 % 1020,5 hPa 0,0 mm 0,0 km/h (0 Bft) N-NE 22 0 min 0 W/m 2,6 C 5,4 C 0,0 km/h (0 Bft)
01/03/2012 01:10 5,2 C 81 % 1020,5 hPa 0,0 mm 0,0 km/h (0 Bft) N-NE 22 0 min 0 W/m 2,2 C 5,2 C 0,0 km/h (0 Bft)
01/03/2012 01:20 4,9 C 82 % 1020,4 hPa 0,0 mm 0,0 km/h (0 Bft) N-NE 22 0 min 0 W/m 2,1 C 4,9 C 0,0 km/h (0 Bft)
01/03/2012 01:30 4,8 C 82 % 1020,4 hPa 0,0 mm 0,0 km/h (0 Bft) N-NE 22 0 min 0 W/m 2,0 C 4,8 C 0,0 km/h (0 Bft)
01/03/2012 01:40 4,6 C 83 % 1020,4 hPa 0,0 mm 0,0 km/h (0 Bft) N-NE 22 0 min 0 W/m 2,0 C 4,6 C 0,0 km/h (0 Bft)
01/03/2012 01:50 4,5 C 83 % 1020,3 hPa 0,0 mm 0,0 km/h (0 Bft) N-NE 22 0 min 0 W/m 1,9 C 4,5 C 0,0 km/h (0 Bft)
01/03/2012 02:02 4,4 C 83 % 1020,2 hPa 0,0 mm 0,0 km/h (0 Bft) N-NE 22 0 min 0 W/m 1,8 C 4,4 C 0,0 km/h (0 Bft)
01/03/2012 02:10 4,3 C 84 % 1020,2 hPa 0,0 mm 0,0 km/h (0 Bft) N-NE 22 0 min 0 W/m 1,8 C 4,3 C 0,0 km/h (0 Bft)
01/03/2012 02:20 4,1 C 84 % 1020,1 hPa 0,0 mm 0,0 km/h (0 Bft) N-NE 22 0 min 0 W/m 1,6 C 4,1 C 0,0 km/h (0 Bft)
01/03/2012 02:30 4,0 C 84 % 1020,2 hPa 0,0 mm 0,0 km/h (0 Bft) N-NE 22 0 min 0 W/m 1,5 C 4,0 C 0,0 km/h (0 Bft)
01/03/2012 02:40 3,9 C 84 % 1020,2 hPa 0,0 mm 0,0 km/h (0 Bft) N-NE 22 0 min 0 W/m 1,4 C 3,9 C 0,0 km/h (0 Bft)
01/03/2012 02:50 3,8 C 84 % 1020,3 hPa 0,0 mm 0,0 km/h (0 Bft) N-NE 22 0 min 0 W/m 1,4 C 3,8 C 0,0 km/h (0 Bft)
01/03/2012 03:00 3,8 C 84 % 1020,2 hPa 0,0 mm 0,0 km/h (0 Bft) E-SE 112 0 min 0 W/m 1,4 C 3,8 C 0,0 km/h (0 Bft)
01/03/2012 03:10 3,8 C 85 % 1020,2 hPa 0,0 mm 0,4 km/h (0 Bft) E-SE 112 0 min 0 W/m 1,5 C 3,8 C 0,4 km/h (0 Bft)
01/03/2012 03:20 3,7 C 85 % 1020,2 hPa 0,0 mm 0,7 km/h (0 Bft) E-SE 112 0 min 0 W/m 1,4 C 3,7 C 0,7 km/h (0 Bft)
01/03/2012 03:30 3,6 C 86 % 1020,2 hPa 0,0 mm 0,0 km/h (0 Bft) E-SE 112 0 min 0 W/m 1,5 C 3,6 C 0,0 km/h (0 Bft)
01/03/2012 03:40 3,5 C 86 % 1020,2 hPa 0,0 mm 0,0 km/h (0 Bft) E-SE 112 0 min 0 W/m 1,4 C 3,5 C 0,0 km/h (0 Bft)
01/03/2012 03:50 3,4 C 86 % 1020,1 hPa 0,0 mm 0,0 km/h (0 Bft) E-SE 112 0 min 0 W/m 1,3 C 3,4 C 0,0 km/h (0 Bft)
01/03/2012 04:00 3,1 C 86 % 1020,1 hPa 0,0 mm 0,0 km/h (0 Bft) E-SE 112 0 min 0 W/m 1,0 C 3,1 C 0,0 km/h (0 Bft)
01/03/2012 04:10 2,8 C 86 % 1020,1 hPa 0,0 mm 0,0 km/h (0 Bft) E-SE 112 0 min 0 W/m 0,7 C 2,8 C 0,0 km/h (0 Bft)
01/03/2012 04:20 2,6 C 87 % 1020,0 hPa 0,0 mm 0,0 km/h (0 Bft) E-SE 112 0 min 0 W/m 0,7 C 2,6 C 0,0 km/h (0 Bft)
01/03/2012 04:30 2,4 C 87 % 1020,0 hPa 0,0 mm 0,0 km/h (0 Bft) E-SE 112 0 min 0 W/m 0,5 C 2,4 C 0,0 km/h (0 Bft)
01/03/2012 04:40 2,2 C 87 % 1019,9 hPa 0,0 mm 0,0 km/h (0 Bft) E-SE 112 0 min 0 W/m 0,3 C 2,2 C 0,0 km/h (0 Bft)
01/03/2012 04:50 2,2 C 88 % 1020,0 hPa 0,0 mm 0,0 km/h (0 Bft) E-SE 112 0 min 0 W/m 0,4 C 2,2 C 0,0 km/h (0 Bft)
01/03/2012 05:00 2,0 C 88 % 1020,1 hPa 0,0 mm 0,0 km/h (0 Bft) E-SE 112 0 min 0 W/m 0,2 C 2,0 C 0,0 km/h (0 Bft)
01/03/2012 05:10 2,1 C 88 % 1020,1 hPa 0,0 mm 0,0 km/h (0 Bft) E-SE 112 0 min 0 W/m 0,3 C 2,1 C 0,0 km/h (0 Bft)
01/03/2012 05:20 2,2 C 88 % 1020,1 hPa 0,0 mm 0,7 km/h (0 Bft) E-SE 112 0 min 0 W/m 0,4 C 2,2 C 0,7 km/h (0 Bft)
01/03/2012 05:30 2,2 C 88 % 1020,2 hPa 0,0 mm 0,0 km/h (0 Bft) E 90 0 min 0 W/m 0,4 C 2,2 C 0,0 km/h (0 Bft)
01/03/2012 05:40 2,1 C 88 % 1020,3 hPa 0,0 mm 0,0 km/h (0 Bft) E 90 0 min 0 W/m 0,3 C 2,1 C 0,0 km/h (0 Bft)
01/03/2012 05:50 2,1 C 88 % 1020,4 hPa 0,0 mm 0,0 km/h (0 Bft) E-SE 112 0 min 0 W/m 0,3 C 2,1 C 0,0 km/h (0 Bft)
01/03/2012 06:00 2,1 C 88 % 1020,4 hPa 0,0 mm 0,0 km/h (0 Bft) E-SE 112 0 min 0 W/m 0,3 C 2,1 C 0,0 km/h (0 Bft)
01/03/2012 06:10 1,9 C 88 % 1020,5 hPa 0,0 mm 0,0 km/h (0 Bft) N-NE 22 0 min 0 W/m 0,1 C 1,9 C 0,0 km/h (0 Bft)
01/03/2012 06:20 1,8 C 88 % 1020,5 hPa 0,0 mm 0,0 km/h (0 Bft) N-NE 22 0 min 0 W/m 0,0 C 1,8 C 0,0 km/h (0 Bft)
01/03/2012 06:30 1,6 C 89 % 1020,5 hPa 0,0 mm 0,0 km/h (0 Bft) E-SE 112 0 min 0 W/m -0,0 C 1,6 C 0,0 km/h (0 Bft)
01/03/2012 06:40 1,4 C 89 % 1020,7 hPa 0,0 mm 0,0 km/h (0 Bft) E-SE 112 0 min 0 W/m -0,2 C 1,4 C 0,0 km/h (0 Bft)
01/03/2012 06:50 1,3 C 89 % 1020,7 hPa 0,0 mm 0,0 km/h (0 Bft) E-SE 112 0 min 0 W/m -0,3 C 1,3 C 0,0 km/h (0 Bft)
01/03/2012 07:00 1,3 C 89 % 1020,7 hPa 0,0 mm 0,0 km/h (0 Bft) E-SE 112 0 min 0 W/m -0,3 C 1,3 C 0,0 km/h (0 Bft)
01/03/2012 07:10 1,2 C 89 % 1020,7 hPa 0,0 mm 0,0 km/h (0 Bft) E-SE 112 0 min 0 W/m -0,4 C 1,2 C 0,0 km/h (0 Bft)
01/03/2012 07:20 1,1 C 89 % 1020,8 hPa 0,0 mm 0,0 km/h (0 Bft) E-SE 112 0 min 0 W/m -0,5 C 1,1 C 0,0 km/h (0 Bft)
01/03/2012 07:30 0,8 C 89 % 1020,9 hPa 0,0 mm 0,0 km/h (0 Bft) E-SE 112 0 min 0 W/m -0,8 C 0,8 C 0,0 km/h (0 Bft)
01/03/2012 07:40 0,8 C 89 % 1021,0 hPa 0,0 mm 0,0 km/h (0 Bft) E 90 0 min 0 W/m -0,8 C 0,8 C 0,0 km/h (0 Bft)
01/03/2012 07:50 0,7 C 89 % 1021,1 hPa 0,0 mm 0,0 km/h (0 Bft) E 90 2 min 0 W/m -0,9 C 0,7 C 0,0 km/h (0 Bft)
01/03/2012 08:00 0,8 C 90 % 1021,3 hPa 0,0 mm 0,0 km/h (0 Bft) E 90 2 min 0 W/m -0,6 C 0,8 C 0,0 km/h (0 Bft)
01/03/2012 08:10 0,9 C 90 % 1021,3 hPa 0,0 mm 0,0 km/h (0 Bft) E 90 2 min 0 W/m -0,6 C 0,9 C 0,0 km/h (0 Bft)
01/03/2012 08:20 1,1 C 90 % 1021,4 hPa 0,0 mm 0,0 km/h (0 Bft) E 90 2 min 0 W/m -0,4 C 1,1 C 0,0 km/h (0 Bft)
01/03/2012 08:30 1,4 C 90 % 1021,5 hPa 0,0 mm 0,0 km/h (0 Bft) E 90 2 min 0 W/m -0,1 C 1,4 C 0,0 km/h (0 Bft)
01/03/2012 08:40 2,1 C 90 % 1021,6 hPa 0,0 mm 0,0 km/h (0 Bft) E-SE 112 2 min 0 W/m 0,6 C 2,1 C 0,0 km/h (0 Bft)
01/03/2012 08:50 2,9 C 91 % 1021,6 hPa 0,0 mm 0,7 km/h (0 Bft) E-SE 112 2 min 0 W/m 1,6 C 2,9 C 3,6 km/h (1 Bft)
01/03/2012 09:00 3,6 C 90 % 1021,7 hPa 0,0 mm 0,0 km/h (0 Bft) E-SE 112 2 min 0 W/m 2,1 C 3,6 C 0,0 km/h (0 Bft)
01/03/2012 09:10 4,4 C 91 % 1021,8 hPa 0,0 mm 0,0 km/h (0 Bft) E-SE 112 2 min 0 W/m 3,1 C 4,4 C 0,0 km/h (0 Bft)
01/03/2012 09:20 5,3 C 90 % 1021,9 hPa 0,0 mm 0,0 km/h (0 Bft) E-SE 112 2 min 0 W/m 3,8 C 5,3 C 0,0 km/h (0 Bft)
01/03/2012 09:30 6,2 C 89 % 1022,0 hPa 0,0 mm 0,0 km/h (0 Bft) E-SE 112 2 min 0 W/m 4,5 C 6,2 C 0,0 km/h (0 Bft)
01/03/2012 09:40 7,2 C 88 % 1022,0 hPa 0,0 mm 0,0 km/h (0 Bft) E-SE 112 2 min 0 W/m 5,3 C 7,2 C 0,0 km/h (0 Bft)
01/03/2012 09:50 8,2 C 85 % 1022,2 hPa 0,0 mm 0,0 km/h (0 Bft) E-SE 112 2 min 0 W/m 5,8 C 8,2 C 0,0 km/h (0 Bft)
01/03/2012 10:00 9,0 C 82 % 1022,3 hPa 0,0 mm 0,0 km/h (0 Bft) E-SE 112 2 min 0 W/m 6,1 C 9,0 C 0,0 km/h (0 Bft)
01/03/2012 10:10 9,9 C 81 % 1022,4 hPa 0,0 mm 0,0 km/h (0 Bft) E-SE 112 2 min 0 W/m 6,8 C 9,9 C 0,0 km/h (0 Bft)
01/03/2012 10:20 10,9 C 78 % 1022,4 hPa 0,0 mm 0,0 km/h (0 Bft) E-SE 112 2 min 0 W/m 7,2 C 10,9 C 0,0 km/h (0 Bft)
01/03/2012 10:30 11,5 C 77 % 1022,5 hPa 0,0 mm 0,0 km/h (0 Bft) E-SE 112 2 min 0 W/m 7,6 C 11,5 C 0,0 km/h (0 Bft)
01/03/2012 10:40 12,3 C 74 % 1022,5 hPa 0,0 mm 0,0 km/h (0 Bft) E-SE 112 2 min 0 W/m 7,8 C 12,3 C 0,0 km/h (0 Bft)
01/03/2012 10:50 13,3 C 73 % 1022,6 hPa 0,0 mm 0,4 km/h (0 Bft) E-SE 112 2 min 0 W/m 8,6 C 13,3 C 0,4 km/h (0 Bft)
01/03/2012 11:00 14,1 C 70 % 1022,6 hPa 0,0 mm 0,0 km/h (0 Bft) E 90 2 min 0 W/m 8,7 C 14,1 C 0,0 km/h (0 Bft)
01/03/2012 11:10 14,8 C 70 % 1022,6 hPa 0,0 mm 0,0 km/h (0 Bft) E 90 2 min 0 W/m 9,4 C 14,8 C 0,0 km/h (0 Bft)
01/03/2012 11:20 15,3 C 69 % 1022,6 hPa 0,0 mm 0,0 km/h (0 Bft) N-NE 22 2 min 0 W/m 9,6 C 15,3 C 0,0 km/h (0 Bft)
01/03/2012 11:30 15,8 C 68 % 1022,6 hPa 0,0 mm 0,0 km/h (0 Bft) NE 45 2 min 0 W/m 9,9 C 15,8 C 3,2 km/h (1 Bft)
01/03/2012 11:40 16,3 C 67 % 1022,5 hPa 0,0 mm 1,4 km/h (1 Bft) N-NE 22 2 min 0 W/m 10,2 C 16,3 C 3,2 km/h (1 Bft)
01/03/2012 11:50 16,9 C 67 % 1022,7 hPa 0,0 mm 2,2 km/h (1 Bft) NO 315 2 min 0 W/m 10,7 C 16,9 C 2,9 km/h (1 Bft)
01/03/2012 12:00 17,1 C 65 % 1022,7 hPa 0,0 mm 3,6 km/h (1 Bft) E-NE 67 2 min 0 W/m 10,5 C 17,1 C 6,8 km/h (2 Bft)
01/03/2012 12:10 17,3 C 65 % 1022,8 hPa 0,0 mm 1,8 km/h (1 Bft) NO 315 2 min 0 W/m 10,7 C 17,3 C 2,9 km/h (1 Bft)
01/03/2012 12:20 17,8 C 65 % 1022,8 hPa 0,0 mm 2,2 km/h (1 Bft) N-NO 337 2 min 0 W/m 11,1 C 17,8 C 6,5 km/h (2 Bft)
01/03/2012 12:30 18,2 C 64 % 1022,9 hPa 0,0 mm 0,0 km/h (0 Bft) N-NE 22 2 min 0 W/m 11,3 C 18,2 C 3,2 km/h (1 Bft)
01/03/2012 12:40 18,4 C 62 % 1022,9 hPa 0,0 mm 2,9 km/h (1 Bft) N-NE 22 2 min 0 W/m 11,0 C 18,4 C 3,2 km/h (1 Bft)
01/03/2012 12:50 18,6 C 63 % 1023,0 hPa 0,0 mm 0,7 km/h (0 Bft) N-NO 337 2 min 0 W/m 11,4 C 18,6 C 1,8 km/h (1 Bft)
01/03/2012 13:00 18,6 C 62 % 1023,0 hPa 0,0 mm 2,9 km/h (1 Bft) N-NE 22 2 min 0 W/m 11,2 C 18,6 C 4,0 km/h (1 Bft)
01/03/2012 13:10 18,8 C 62 % 1023,1 hPa 0,0 mm 1,1 km/h (1 Bft) N-NO 337 2 min 0 W/m 11,4 C 18,8 C 4,0 km/h (1 Bft)
01/03/2012 13:20 18,8 C 62 % 1022,9 hPa 0,0 mm 4,0 km/h (1 Bft) N-NE 22 2 min 0 W/m 11,4 C 18,8 C 6,8 km/h (2 Bft)
01/03/2012 13:30 18,6 C 62 % 1023,0 hPa 0,0 mm 3,6 km/h (1 Bft) NO 315 2 min 0 W/m 11,2 C 18,6 C 8,6 km/h (2 Bft)
01/03/2012 13:40 18,5 C 62 % 1022,9 hPa 0,0 mm 2,2 km/h (1 Bft) NO 315 2 min 0 W/m 11,1 C 18,5 C 7,9 km/h (2 Bft)
01/03/2012 13:50 18,4 C 62 % 1022,8 hPa 0,0 mm 1,4 km/h (1 Bft) NE 45 2 min 0 W/m 11,0 C 18,4 C 6,1 km/h (2 Bft)
01/03/2012 14:00 18,4 C 62 % 1022,8 hPa 0,0 mm 1,4 km/h (1 Bft) N-NE 22 2 min 0 W/m 11,0 C 18,4 C 3,2 km/h (1 Bft)
01/03/2012 14:10 18,3 C 61 % 1022,7 hPa 0,0 mm 2,2 km/h (1 Bft) N-NO 337 2 min 0 W/m 10,6 C 18,3 C 6,8 km/h (2 Bft)
01/03/2012 14:20 18,3 C 63 % 1022,7 hPa 0,0 mm 2,9 km/h (1 Bft) N-NO 337 2 min 0 W/m 11,1 C 18,3 C 3,6 km/h (1 Bft)
01/03/2012 14:30 18,2 C 62 % 1022,6 hPa 0,0 mm 3,6 km/h (1 Bft) N-NE 22 2 min 0 W/m 10,8 C 18,2 C 6,5 km/h (2 Bft)
01/03/2012 14:40 17,5 C 63 % 1022,4 hPa 0,0 mm 4,3 km/h (1 Bft) NO 315 2 min 0 W/m 10,4 C 17,5 C 6,1 km/h (2 Bft)
01/03/2012 14:50 17,2 C 65 % 1022,5 hPa 0,0 mm 0,0 km/h (0 Bft) N-NE 22 2 min 0 W/m 10,6 C 17,2 C 0,0 km/h (0 Bft)
01/03/2012 15:00 16,8 C 65 % 1022,4 hPa 0,0 mm 6,1 km/h (2 Bft) NE 45 2 min 0 W/m 10,2 C 16,8 C 8,6 km/h (2 Bft)
01/03/2012 15:10 16,4 C 67 % 1022,3 hPa 0,0 mm 5,0 km/h (1 Bft) N 360 2 min 0 W/m 10,3 C 16,4 C 5,8 km/h (2 Bft)
01/03/2012 15:20 16,3 C 67 % 1022,3 hPa 0,0 mm 1,4 km/h (1 Bft) N-NO 337 2 min 0 W/m 10,2 C 16,3 C 11,2 km/h (2 Bft)
01/03/2012 15:30 16,1 C 68 % 1022,2 hPa 0,0 mm 4,0 km/h (1 Bft) N-NE 22 2 min 0 W/m 10,2 C 16,1 C 7,6 km/h (2 Bft)
01/03/2012 15:40 16,1 C 68 % 1022,3 hPa 0,0 mm 1,1 km/h (1 Bft) N-NO 337 2 min 0 W/m 10,2 C 16,1 C 4,0 km/h (1 Bft)
01/03/2012 15:50 16,1 C 68 % 1022,2 hPa 0,0 mm 2,5 km/h (1 Bft) N 360 2 min 0 W/m 10,2 C 16,1 C 3,2 km/h (1 Bft)
01/03/2012 16:00 15,9 C 69 % 1022,2 hPa 0,0 mm 1,1 km/h (1 Bft) N-NE 22 2 min 0 W/m 10,2 C 15,9 C 2,9 km/h (1 Bft)
01/03/2012 16:10 15,8 C 70 % 1022,3 hPa 0,0 mm 0,0 km/h (0 Bft) NO 315 2 min 0 W/m 10,3 C 15,8 C 1,4 km/h (1 Bft)
01/03/2012 16:20 15,8 C 70 % 1022,2 hPa 0,0 mm 4,0 km/h (1 Bft) N 360 2 min 0 W/m 10,3 C 15,8 C 8,3 km/h (2 Bft)
01/03/2012 16:30 15,6 C 70 % 1022,2 hPa 0,0 mm 1,4 km/h (1 Bft) N-NO 337 2 min 0 W/m 10,1 C 15,6 C 4,7 km/h (1 Bft)
01/03/2012 16:40 15,4 C 70 % 1022,2 hPa 0,0 mm 1,1 km/h (1 Bft) N 360 2 min 0 W/m 10,0 C 15,4 C 4,0 km/h (1 Bft)
01/03/2012 16:50 15,3 C 71 % 1022,2 hPa 0,0 mm 2,2 km/h (1 Bft) N-NO 337 2 min 0 W/m 10,1 C 15,3 C 7,2 km/h (2 Bft)
01/03/2012 17:00 15,1 C 71 % 1022,3 hPa 0,0 mm 0,4 km/h (0 Bft) N 360 2 min 0 W/m 9,9 C 15,1 C 3,2 km/h (1 Bft)
01/03/2012 17:10 14,9 C 72 % 1022,3 hPa 0,0 mm 3,6 km/h (1 Bft) N 360 2 min 0 W/m 9,9 C 14,9 C 8,3 km/h (2 Bft)
01/03/2012 17:20 14,5 C 72 % 1022,2 hPa 0,0 mm 2,5 km/h (1 Bft) N-NE 22 2 min 0 W/m 9,5 C 14,5 C 4,3 km/h (1 Bft)
01/03/2012 17:30 14,1 C 73 % 1022,3 hPa 0,0 mm 1,1 km/h (1 Bft) N 360 2 min 0 W/m 9,3 C 14,1 C 3,2 km/h (1 Bft)
01/03/2012 17:40 13,7 C 73 % 1022,4 hPa 0,0 mm 3,2 km/h (1 Bft) N 360 2 min 0 W/m 8,9 C 13,7 C 7,6 km/h (2 Bft)
01/03/2012 17:50 13,3 C 74 % 1022,5 hPa 0,0 mm 0,7 km/h (0 Bft) N 360 2 min 0 W/m 8,8 C 13,3 C 0,7 km/h (0 Bft)
01/03/2012 18:00 12,8 C 75 % 1022,7 hPa 0,0 mm 4,3 km/h (1 Bft) N-NE 22 2 min 0 W/m 8,5 C 12,8 C 8,3 km/h (2 Bft)
01/03/2012 18:10 12,3 C 76 % 1022,9 hPa 0,0 mm 1,1 km/h (1 Bft) N-NE 22 2 min 0 W/m 8,2 C 12,3 C 2,9 km/h (1 Bft)
01/03/2012 18:20 11,6 C 77 % 1023,0 hPa 0,0 mm 1,8 km/h (1 Bft) N-NE 22 2 min 0 W/m 7,7 C 11,6 C 4,0 km/h (1 Bft)
01/03/2012 18:30 10,8 C 78 % 1023,1 hPa 0,0 mm 7,6 km/h (2 Bft) N 360 2 min 0 W/m 7,1 C 10,8 C 7,6 km/h (2 Bft)
01/03/2012 18:40 9,9 C 80 % 1023,3 hPa 0,0 mm 5,0 km/h (1 Bft) N 360 0 min 0 W/m 6,6 C 9,6 C 8,6 km/h (2 Bft)
01/03/2012 18:50 9,4 C 82 % 1023,2 hPa 0,0 mm 4,3 km/h (1 Bft) N 360 0 min 0 W/m 6,5 C 9,4 C 4,3 km/h (1 Bft)
01/03/2012 19:00 9,1 C 83 % 1023,1 hPa 0,0 mm 5,4 km/h (2 Bft) N 360 0 min 0 W/m 6,4 C 8,6 C 7,6 km/h (2 Bft)
01/03/2012 19:10 8,8 C 84 % 1023,2 hPa 0,0 mm 5,0 km/h (1 Bft) N-NE 22 0 min 0 W/m 6,2 C 8,4 C 7,2 km/h (2 Bft)
01/03/2012 19:20 8,5 C 85 % 1023,2 hPa 0,0 mm 1,8 km/h (1 Bft) NE 45 0 min 0 W/m 6,1 C 8,5 C 4,0 km/h (1 Bft)
01/03/2012 19:30 8,3 C 85 % 1023,2 hPa 0,0 mm 2,5 km/h (1 Bft) N 360 0 min 0 W/m 5,9 C 8,3 C 6,1 km/h (2 Bft)
01/03/2012 19:40 8,2 C 86 % 1023,3 hPa 0,0 mm 4,7 km/h (1 Bft) N-NE 22 0 min 0 W/m 6,0 C 7,8 C 7,6 km/h (2 Bft)
01/03/2012 19:50 8,1 C 87 % 1023,3 hPa 0,0 mm 2,9 km/h (1 Bft) N-NE 22 0 min 0 W/m 6,1 C 8,1 C 4,0 km/h (1 Bft)
01/03/2012 20:00 8,0 C 87 % 1023,4 hPa 0,0 mm 4,3 km/h (1 Bft) N-NE 22 0 min 0 W/m 6,0 C 8,0 C 6,5 km/h (2 Bft)
01/03/2012 20:10 7,9 C 88 % 1023,4 hPa 0,0 mm 1,4 km/h (1 Bft) N-NE 22 0 min 0 W/m 6,0 C 7,9 C 4,3 km/h (1 Bft)
01/03/2012 20:20 7,9 C 88 % 1023,5 hPa 0,0 mm 3,6 km/h (1 Bft) N-NE 22 0 min 0 W/m 6,0 C 7,9 C 6,5 km/h (2 Bft)
01/03/2012 20:30 7,8 C 89 % 1023,6 hPa 0,0 mm 4,3 km/h (1 Bft) N-NE 22 0 min 0 W/m 6,1 C 7,8 C 8,3 km/h (2 Bft)
01/03/2012 20:40 7,8 C 89 % 1023,7 hPa 0,0 mm 0,7 km/h (0 Bft) N 360 0 min 0 W/m 6,1 C 7,8 C 4,0 km/h (1 Bft)
01/03/2012 20:50 7,8 C 89 % 1023,7 hPa 0,0 mm 1,8 km/h (1 Bft) NE 45 0 min 0 W/m 6,1 C 7,8 C 3,6 km/h (1 Bft)
01/03/2012 21:00 7,8 C 89 % 1023,6 hPa 0,0 mm 3,2 km/h (1 Bft) N-NE 22 0 min 0 W/m 6,1 C 7,8 C 3,6 km/h (1 Bft)
01/03/2012 21:10 7,6 C 90 % 1023,8 hPa 0,0 mm 0,0 km/h (0 Bft) N-NE 22 0 min 0 W/m 6,1 C 7,6 C 3,2 km/h (1 Bft)
01/03/2012 21:20 7,6 C 90 % 1023,8 hPa 0,0 mm 1,8 km/h (1 Bft) NE 45 0 min 0 W/m 6,1 C 7,6 C 1,8 km/h (1 Bft)
01/03/2012 21:30 7,6 C 90 % 1023,9 hPa 0,0 mm 2,5 km/h (1 Bft) N-NE 22 0 min 0 W/m 6,1 C 7,6 C 4,3 km/h (1 Bft)
01/03/2012 21:40 7,7 C 90 % 1023,9 hPa 0,0 mm 1,4 km/h (1 Bft) E-NE 67 0 min 0 W/m 6,2 C 7,7 C 2,9 km/h (1 Bft)
01/03/2012 21:50 7,7 C 91 % 1023,9 hPa 0,0 mm 0,0 km/h (0 Bft) N-NE 22 0 min 0 W/m 6,3 C 7,7 C 0,0 km/h (0 Bft)
01/03/2012 22:00 7,7 C 91 % 1023,8 hPa 0,0 mm 2,2 km/h (1 Bft) NE 45 0 min 0 W/m 6,3 C 7,7 C 4,3 km/h (1 Bft)
01/03/2012 22:10 7,7 C 91 % 1023,9 hPa 0,0 mm 2,2 km/h (1 Bft) NE 45 0 min 0 W/m 6,3 C 7,7 C 4,3 km/h (1 Bft)
01/03/2012 22:20 7,6 C 90 % 1023,8 hPa 0,0 mm 0,7 km/h (0 Bft) N-NE 22 0 min 0 W/m 6,1 C 7,6 C 3,2 km/h (1 Bft)
01/03/2012 22:30 7,6 C 90 % 1023,8 hPa 0,0 mm 0,0 km/h (0 Bft) NE 45 0 min 0 W/m 6,1 C 7,6 C 0,0 km/h (0 Bft)
01/03/2012 22:40 7,5 C 91 % 1023,7 hPa 0,0 mm 0,0 km/h (0 Bft) E-NE 67 0 min 0 W/m 6,1 C 7,5 C 0,0 km/h (0 Bft)
01/03/2012 22:50 7,5 C 91 % 1023,8 hPa 0,0 mm 0,4 km/h (0 Bft) NE 45 0 min 0 W/m 6,1 C 7,5 C 3,6 km/h (1 Bft)
01/03/2012 23:00 7,4 C 91 % 1023,8 hPa 0,0 mm 0,7 km/h (0 Bft) N-NE 22 0 min 0 W/m 6,0 C 7,4 C 3,2 km/h (1 Bft)
01/03/2012 23:10 7,4 C 91 % 1023,7 hPa 0,0 mm 1,4 km/h (1 Bft) N-NE 22 0 min 0 W/m 6,0 C 7,4 C 1,4 km/h (1 Bft)
01/03/2012 23:20 7,4 C 91 % 1023,8 hPa 0,0 mm 1,1 km/h (1 Bft) N-NE 22 0 min 0 W/m 6,0 C 7,4 C 4,0 km/h (1 Bft)
01/03/2012 23:30 7,3 C 91 % 1023,8 hPa 0,0 mm 1,1 km/h (1 Bft) N-NE 22 0 min 0 W/m 5,9 C 7,3 C 1,4 km/h (1 Bft)
_ Min-Heure 07:50 14:10 04:40 - 22:40 - - - - 07:50 07:50 22:40
Minimum _ 0,7 C 61 % 1019,9 hPa - 0,0 km/h (0 Bft) - - - - -0,9 C 0,7 C 0,0 km/h (0 Bft)
_ Max-Heure 13:20 23:30 22:10 23:30 18:30 - - 18:30 23:30 12:50 13:20 15:20
Maximum _ 18,8 C 91 % 1023,9 hPa 0,0 mm 7,6 km/h
N (2 Bft)
- - 2 min 0 W/m 11,4 C 18,8 C 11,2 km/h
N-NO (2 Bft)
Moyenne _ 8,8 C 80 % 1022,0 hPa #0,0 mm 1,2 km/h (1 Bft) N-NE - #2:10 h 0 W/m 5,4 C 8,8 C 2,4 km/h (1 Bft)
Saint Bonnet de Bellac- Haute Vienne - France